Vertical_Velocity
4 4 2 1 1 1 1 1 1 1 0 -1 -0 0 1 0 0 1 1 0 -0 -1 -1 -1 -1 -1 -0 0 1 1 1 1 1 1 1 0 0 -0 -0 -1 -0 -0 -0 0 1 1 1 1 0 -0 -0 -1 -1 -1 -1 -1 -1 -1 -1 -1 -1 -0 0 1 1 1 2 1 2 4 7 6 4 2 -0 -1 -1 0 4 3 1 -0 2 4 4 3
5 5 4 2 1 1 1 1 1 1 1 0 -0 0 1 1 1 1 1 1 0 -0 -0 -0 -0 -0 0 1 1 1 1 1 1 1 0 0 -0 -0 -0 -1 -1 -0 -0 0 1 1 1 0 -0 -0 -0 -1 -1 -1 -1 -1 -1 -1 -1 -1 -1 -0 0 1 1 0 -1 -2 0 5 11 12 10 6 2 0 -0 -0 2 1 -0 -1 -1 1 3 3
3 4 4 3 2 1 0 -0 -0 0 1 1 0 0 1 1 1 1 1 1 1 0 0 0 0 0 0 0 0 1 1 0 0 0 -0 -0 -0 -1 -0 -1 -1 -1 -1 -0 0 0 0 -0 -0 -0 -1 -1 -1 -1 -1 -1 -1 -1 -1 -1 -1 -0 -0 0 0 -0 -1 -2 -2 2 8 11 11 8 4 1 0 1 1 1 -0 -1 -1 0 2 3
2 2 2 4 3 2 1 -0 -1 -1 -0 0 0 0 1 1 1 1 1 1 1 0 0 0 1 0 0 0 1 1 1 0 0 -0 -0 -1 -1 -1 -1 -1 -1 -1 -1 -0 -0 0 0 -0 -0 -0 -0 -1 -1 -1 -1 -1 -1 -1 -1 -1 -1 -0 -0 -0 -0 -1 -1 -2 -1 1 5 7 6 4 1 -0 -1 -0 2 2 1 0 -0 -0 0 0
1 2 1 3 3 2 1 0 -0 -1 -1 -1 -1 -0 -0 -0 0 0 1 1 1 0 0 0 1 1 1 1 1 1 1 0 0 0 -0 -1 -1 -1 -0 -1 -1 -1 -1 -1 -0 -0 0 0 -0 -0 -0 -0 -0 -0 -1 -1 -1 -1 -1 -1 -1 -1 -0 -1 -1 -1 -2 -2 -1 1 4 5 3 1 -1 -3 -4 -3 -1 2 3 3 1 -0 -1 -1
0 1 1 2 2 1 1 0 -0 -0 -0 -1 -1 -1 -1 -1 -0 -0 -0 -0 -0 0 0 1 1 1 2 2 1 1 1 0 0 -0 -0 -1 -1 -1 -0 -1 -1 -1 -1 -0 -0 0 0 0 0 0 0 0 -0 -0 -1 -1 -1 -1 -1 -1 -1 -1 -1 -1 -1 -2 -2 -2 -1 1 3 3 1 -1 -2 -4 -5 -6 -5 -1 3 4 3 1 -0 -1
-1 0 2 1 0 0 1 -0 -0 0 1 -0 -1 -2 -2 -1 -1 -1 -1 -1 -0 0 0 1 1 2 2 2 1 1 0 -0 -0 -0 -1 -1 -1 -1 -0 -0 -0 -0 -0 -0 0 0 1 1 1 0 0 0 -0 -0 -1 -1 -1 -1 -1 -1 -1 -1 -1 -2 -2 -2 -2 -2 -1 -0 1 1 -0 -1 -1 -0 -1 -4 -7 -4 -0 2 3 2 1 -0
-2 -2 1 1 0 -0 -0 -1 -1 0 1 0 -1 -2 -2 -2 -2 -1 -1 -1 -0 0 1 1 1 2 2 2 1 0 -0 -1 -1 -1 -1 -1 -1 -1 -1 -0 -0 -0 -0 0 0 1 1 1 0 0 -0 -0 -1 -1 -1 -1 -1 -1 -1 -1 -1 -1 -2 -2 -2 -2 -2 -2 -2 -1 -1 -1 -1 -1 1 3 2 0 -5 -5 -3 -1 0 0 -0 -1
-2 -3 -2 1 2 1 -2 -2 -1 1 2 1 -0 -2 -2 -3 -2 -2 -1 -0 -0 1 1 1 1 1 2 2 1 -0 -1 -1 -1 -1 -1 -1 -1 -1 -1 -0 -0 -0 0 1 1 1 1 1 0 -0 -0 -1 -1 -1 -1 -1 -1 -0 -0 -1 -1 -1 -1 -2 -2 -2 -2 -2 -2 -2 -2 -1 -0 1 3 4 3 1 -2 -4 -3 -2 -2 -1 -2 -2
-2 -2 -3 -1 1 2 0 -3 -3 -0 3 1 -1 -2 -2 -2 -2 -2 -1 -0 1 2 2 1 0 0 1 1 0 -1 -2 -2 -2 -1 -1 -1 -1 -1 -1 -0 -0 0 1 1 1 1 1 0 -0 -0 -1 -1 -1 -1 -1 -1 -1 -1 -1 -1 -1 -1 -1 -1 -1 -1 -2 -2 -2 -3 -3 -1 0 2 4 3 2 0 -1 -2 -2 -2 -2 -2 -2 -2
-3 -2 -1 -1 -0 1 2 -1 -2 -1 3 2 -1 -3 -3 -1 -1 -1 -1 -0 2 3 3 1 -0 -0 0 1 -0 -1 -2 -2 -2 -1 -1 -1 -1 -1 -1 -0 0 1 1 1 0 1 1 0 -0 -1 -1 -1 -0 -0 -0 -0 -0 -0 -1 -1 -1 -1 -1 -1 -1 -1 -1 -2 -2 -3 -2 -1 1 2 2 2 1 -0 -1 -1 -1 -1 -1 -1 -2 -1
-2 -1 0 -0 -0 -0 0 -0 -0 1 2 1 -1 -3 -4 -1 0 1 -1 -2 1 3 3 1 0 0 1 0 -0 -1 -1 -1 -2 -2 -1 -1 -1 -1 -0 -0 0 1 1 0 0 1 1 0 -0 -1 -1 -0 -0 -0 0 0 0 -0 -0 -1 -1 -1 -1 -1 -1 -1 -1 -2 -2 -2 -2 -0 1 1 1 1 0 -0 -0 -0 -0 -0 -1 -1 -1 -0
-1 0 1 0 -1 -1 0 1 1 0 0 -0 -1 -2 -2 -0 1 0 -1 -2 -1 2 2 0 0 1 2 1 0 -1 -2 -2 -2 -2 -1 -1 -1 -0 -0 0 1 1 1 1 0 0 1 0 -0 -1 -1 -0 -0 -0 0 1 1 1 -0 -1 -1 -1 -1 -1 -1 -1 -1 -1 -1 -2 -1 0 1 1 1 0 -0 -0 -0 0 -0 -0 -1 -1 -0 1
-0 1 2 -0 -1 -1 1 2 2 0 -2 -0 1 2 2 0 -1 -1 -2 -2 -1 1 2 -0 -1 -0 2 2 2 0 -1 -3 -3 -2 -1 -0 0 1 0 0 0 1 1 1 0 1 1 1 -0 -1 -1 -1 -0 -0 0 1 1 1 0 -0 -1 -1 -1 -1 -1 -1 -1 -1 -1 -1 -0 1 2 2 1 0 -0 -0 -0 -1 -1 -1 -1 -0 0 2
1 3 2 -1 -2 -1 2 3 3 1 -1 2 4 4 2 -1 -3 -3 -2 -2 -0 1 2 -1 -3 -2 1 2 3 2 0 -2 -3 -3 -2 0 1 2 1 0 -0 0 1 1 1 1 1 1 0 -1 -1 -0 -0 0 0 0 0 0 0 -0 -1 -1 -1 -1 -1 -1 -1 -1 -1 -0 -0 1 2 2 1 0 -0 -1 -1 -2 -2 -2 -1 -0 1 2
1 3 1 -2 -2 -0 2 4 4 3 2 4 5 4 1 -1 -3 -2 -1 -0 0 1 1 -1 -3 -3 -1 2 4 4 3 -0 -2 -4 -2 0 2 2 0 0 -0 -0 0 1 1 1 1 1 1 -0 -1 -0 0 0 0 -0 -0 -1 -0 -1 -1 -1 -1 -1 -1 -1 -1 -1 -1 -0 0 1 2 2 2 0 -0 -1 -1 -2 -1 -0 1 2 2 2
0 1 -1 -1 -2 -1 1 5 5 5 4 4 3 2 1 -0 -0 0 1 1 1 1 -0 -1 -2 -3 -3 2 4 4 4 3 -1 -4 -3 -0 1 1 -0 -0 -1 -1 -0 0 1 1 1 1 1 0 -0 -0 -0 0 -0 -0 -1 -1 -1 -1 -1 -1 -1 -1 -1 -1 -1 -1 -1 -0 -0 1 2 2 1 0 -0 -1 -1 -0 1 2 3 3 2 2
-1 -1 0 0 -1 -1 1 3 4 4 5 5 4 2 1 1 1 2 1 2 1 0 -1 -1 -2 -2 -1 3 4 3 5 5 1 -3 -4 -2 -0 -0 -1 -1 -1 -1 -1 0 1 1 1 1 1 1 0 -0 -0 -0 -0 -1 -1 -1 -1 -1 -1 -1 -1 -1 -1 -1 -1 -1 -1 -0 -0 1 1 1 1 0 -0 -1 -1 0 2 2 2 2 2 1
-4 -2 1 1 1 0 1 1 2 4 5 6 6 5 2 0 0 1 1 1 1 1 -0 -1 -2 -2 1 3 3 3 4 5 2 -1 -4 -3 -2 -1 -2 -1 -1 -1 -1 0 1 1 2 1 1 1 1 0 -0 -1 -0 -0 -1 -1 -1 -1 -1 -0 -1 -1 -1 -2 -1 -1 -1 -0 0 1 1 1 0 -0 -0 -0 -0 0 1 1 1 1 -0 -1
-4 -3 -1 2 4 3 0 -1 0 3 6 7 8 6 2 -1 -1 -1 -1 1 1 1 0 -1 -2 -1 2 4 3 1 1 4 3 1 -4 -3 -2 -1 -2 -1 -1 -1 -1 0 1 2 2 2 1 1 1 0 -0 -0 -0 -0 -0 -1 -1 -1 -1 -1 -1 -1 -1 -2 -1 -1 -1 -0 0 1 1 1 1 0 -0 -0 -0 0 0 0 0 -0 -1 -2
-4 -4 -2 4 5 3 -2 -2 1 5 9 9 6 3 -1 -2 -2 -2 -1 2 2 2 0 -1 -1 0 2 2 1 -0 0 4 4 2 -2 -2 -1 -1 -1 -1 -0 -1 -1 1 2 2 2 2 1 1 1 1 0 -0 0 -0 -0 -0 -1 -0 -0 -1 -1 -1 -1 -1 -1 -1 -0 -0 0 1 1 1 1 1 0 -0 -0 -0 -0 -0 -0 -1 -2 -2
-3 -5 -1 3 3 1 -1 1 3 6 9 7 4 -0 -3 -3 -3 -2 1 3 3 2 -0 -1 -0 0 1 -0 -1 -1 2 4 4 2 -1 -0 -0 -0 -0 0 0 0 -1 1 2 3 3 2 2 2 2 1 0 0 0 -0 -0 -1 -0 -0 -0 -1 -1 -1 -1 -1 -1 -1 -1 -0 0 1 1 2 2 1 1 0 0 0 -0 -0 -0 -1 -1 -2
-2 -3 0 2 1 1 2 2 3 4 6 4 2 -0 -2 -3 -3 -2 1 3 2 1 -1 -1 -1 -0 -0 -1 -1 1 4 4 3 1 1 -1 -1 -0 1 2 1 0 -1 1 3 4 4 2 2 2 2 1 1 0 0 0 -0 -0 -0 -0 -0 -1 -1 -1 -1 -1 -1 -1 -1 -0 0 1 1 2 2 2 1 1 1 0 -0 -0 -0 -1 -1 -2
-0 -0 1 1 1 2 4 3 3 2 3 1 -0 -2 -2 -3 -2 -1 1 1 1 0 -0 -1 -1 -1 -1 -1 0 2 4 4 3 2 1 -1 -1 1 3 3 2 -0 -2 1 3 5 4 2 2 2 2 1 1 1 1 0 -0 -0 0 0 -0 -1 -1 -1 -0 -0 -1 -1 -1 -0 -0 1 1 2 2 2 2 1 1 0 0 -0 -0 -1 -1 -2
1 0 1 2 3 3 3 2 2 2 1 -1 -2 -1 1 0 -0 -1 -0 -0 -0 -0 0 0 -1 -2 -3 -1 1 2 4 4 4 3 1 -0 -0 2 4 4 2 1 -1 0 3 5 4 2 1 1 2 1 1 1 1 1 0 0 1 0 -0 -1 -1 -1 -0 -0 -0 -0 -0 -0 0 1 1 2 2 2 2 1 1 0 0 0 -0 -1 -1 -2
1 1 2 3 4 4 3 2 2 1 1 -0 -0 1 5 6 4 1 -1 -3 -3 -1 1 -0 -3 -4 -3 -0 1 2 4 5 4 3 2 1 0 1 3 4 3 2 -1 0 3 5 4 2 1 1 2 2 1 1 1 1 1 1 1 0 -1 -1 -1 -1 -0 -0 -0 -0 -0 -0 0 1 1 1 2 2 2 1 1 0 0 0 -0 -1 -1 -1
1 1 2 3 4 4 5 4 4 3 2 2 2 3 6 8 7 2 -4 -5 -3 -1 1 -0 -3 -4 -2 -0 0 2 5 6 5 3 3 2 0 -0 1 4 4 3 0 1 2 3 3 2 1 1 1 2 1 1 1 1 1 1 1 0 -0 -1 -1 -1 -1 -1 -0 -0 -0 0 0 1 1 1 2 2 2 1 1 0 0 -0 -0 -0 -1 -1
1 1 1 2 2 3 4 4 3 3 3 3 3 4 6 8 6 3 -3 -2 -1 1 0 -1 -2 -4 -3 -2 -1 2 6 6 5 4 3 1 -1 -2 0 4 5 4 1 1 1 2 3 2 1 1 2 2 1 0 -0 1 1 1 1 1 -0 -1 -1 -1 -1 -0 -0 -0 0 0 0 1 1 1 2 2 1 1 1 0 0 0 0 0 -0 -0
0 -0 -0 1 1 1 1 2 2 3 3 3 4 4 5 5 4 3 4 6 4 1 -1 -1 -3 -4 -3 -3 -1 1 2 3 5 6 4 0 -2 -3 1 5 5 4 2 2 3 3 1 1 1 2 3 2 1 -0 -1 1 1 1 1 1 0 -0 -1 -1 -1 -0 -0 0 0 0 0 1 1 1 1 1 1 1 0 0 0 0 1 1 0 -0
-0 -1 -1 0 1 1 -0 1 2 3 4 4 4 5 6 2 -0 0 6 9 6 1 -1 -2 -3 -3 -1 -1 -1 -3 -6 -2 5 10 7 1 -3 -3 2 4 5 4 4 4 4 2 -1 -0 2 4 4 4 2 0 -0 0 1 1 1 1 1 -0 -0 -0 -0 0 0 0 0 0 0 0 0 1 1 1 1 1 0 0 0 1 1 1 0 -0
-1 -1 -2 -0 1 1 -1 0 2 3 4 4 4 5 5 2 -1 -1 1 2 -0 -2 -1 -3 -3 -3 -1 -0 -3 -8 -14 -5 7 15 10 2 -2 -2 1 3 4 4 4 4 3 1 -2 1 3 5 6 4 2 0 -0 -0 0 1 2 2 1 1 0 1 1 1 0 0 0 0 0 0 0 0 1 1 1 1 1 1 1 1 1 1 0 -1
-1 -2 -2 0 1 1 -1 1 2 3 3 3 3 4 4 2 1 -0 -1 -4 -6 -5 -3 -3 -3 -3 -2 -3 -6 -10 -14 -3 9 16 12 4 -0 -2 -0 1 3 4 3 3 2 1 -1 1 4 6 6 4 2 0 -1 -0 -0 1 2 2 2 1 1 1 1 1 0 0 0 0 -0 -0 -0 -0 0 1 1 1 1 1 2 2 1 0 -0 -1
-2 -3 -1 -0 -0 -1 -1 1 2 2 1 1 2 2 3 2 2 1 0 -2 -4 -4 -4 -2 -2 -3 -4 -5 -6 -8 -8 -1 7 12 11 6 1 -1 -1 1 2 3 3 2 1 1 -0 1 3 6 6 4 2 1 -0 -1 -0 1 2 2 2 2 2 2 1 1 0 0 0 -0 -0 -0 -0 -0 0 1 2 2 2 2 2 2 1 0 -1 -2
-3 -3 -1 -1 -2 -3 -2 0 1 1 1 1 1 2 3 2 2 2 2 1 -1 -2 -3 -2 -1 -2 -4 -5 -6 -5 -4 -1 4 8 10 6 3 1 -0 0 2 3 3 1 1 0 -1 -0 3 5 6 5 3 2 0 -1 -1 -0 1 2 2 2 1 1 1 1 1 0 -0 -0 -1 -1 -0 -0 0 2 2 3 2 2 2 2 1 -0 -1 -2
-3 -3 -2 -2 -3 -4 -3 -1 -0 -0 0 0 1 2 3 3 3 3 3 1 -0 -1 -2 -1 -1 -1 -1 -3 -4 -5 -3 -0 4 7 7 5 4 2 1 -0 2 4 3 2 1 0 -1 -0 2 4 6 6 4 2 0 -1 -1 -0 1 2 2 2 1 1 2 2 1 1 -0 -1 -1 -0 -0 0 1 2 3 3 2 2 2 2 1 -0 -1 -2
-4 -4 -2 -2 -2 -3 -3 -2 -1 -1 -1 -0 1 3 4 4 4 4 4 2 1 0 -0 -1 -1 -1 -1 -2 -3 -3 -2 3 5 6 4 4 4 2 -0 -0 2 4 3 3 2 1 -1 0 1 3 5 5 4 2 -0 -0 0 1 1 1 1 1 1 1 1 2 2 1 -0 -0 -0 -0 0 0 1 2 2 2 1 1 1 2 1 -0 -1 -2
-5 -5 -2 -1 -2 -3 -3 -1 -1 -1 -2 -0 2 4 5 5 6 6 5 3 2 1 1 1 -0 -1 -2 -2 -2 -1 0 3 3 2 2 3 2 1 -1 -0 1 2 1 3 3 2 1 1 1 1 2 2 2 2 1 2 2 1 -0 -0 1 1 1 1 1 2 2 1 0 -0 -0 0 0 0 1 1 1 1 1 1 1 2 1 -0 -1 -2
-5 -4 -2 -1 -1 -2 -2 -1 -1 -1 -1 1 4 6 7 7 7 7 6 4 3 2 2 1 0 -1 -3 -2 -1 -0 1 0 -0 -0 1 1 -0 -1 -1 0 0 0 0 3 4 3 2 2 0 -1 -1 -0 1 2 4 4 3 1 -1 -0 1 1 1 0 1 1 2 1 1 0 0 -0 0 0 1 1 1 1 1 1 2 2 1 -0 -1 -2
-4 -4 -3 -2 -1 -2 -2 -2 -0 1 2 4 6 7 8 6 6 6 6 5 4 3 2 2 1 0 -1 -1 -0 0 1 2 3 3 2 -0 -2 -2 -0 -0 -1 -0 1 3 4 4 2 1 -1 -1 -1 0 2 3 4 4 3 1 1 1 1 0 -1 -0 1 1 1 2 1 1 -0 -0 0 1 1 1 1 2 2 1 1 2 1 -0 -1 -2
-4 -4 -4 -3 -2 -2 -3 -2 0 3 4 4 5 7 6 6 6 6 6 5 4 4 3 4 4 4 2 0 -1 -1 2 7 9 8 3 -0 -2 -2 -1 -1 -1 -0 2 3 3 3 2 1 -0 -0 1 2 2 3 4 4 3 2 2 1 -1 -2 -2 -0 1 1 2 2 1 1 -0 0 1 1 1 1 2 2 2 1 1 1 1 -0 -1 -2
-4 -5 -5 -4 -2 -2 -2 -0 2 4 3 3 2 2 3 5 6 6 6 6 5 4 5 6 7 6 4 1 -2 -2 -0 6 9 8 4 0 -1 -1 -2 -1 -1 -0 1 2 2 2 2 1 0 0 1 1 2 2 3 3 3 2 1 -1 -2 -2 1 1 1 1 2 2 1 1 0 1 1 1 1 2 2 2 1 1 1 0 1 -0 -1 -1
-5 -5 -4 -2 -0 1 2 3 3 3 3 1 -1 -2 -0 3 5 6 6 5 4 4 6 9 10 9 6 2 -0 -1 -1 1 3 3 1 0 -0 -1 -1 -1 -1 -1 -0 1 2 2 1 1 0 -0 -0 1 2 2 3 3 3 3 1 -1 -0 1 2 0 -0 0 1 1 1 1 1 1 1 1 2 2 2 1 1 1 0 0 0 -0 -0 -0
-4 -4 -2 -0 1 1 2 2 2 2 2 0 -2 -2 -0 2 4 6 6 4 2 2 5 10 12 11 7 2 0 -0 -1 -1 -1 -1 -2 -1 0 0 -1 -1 -1 -1 -1 0 1 1 0 0 -0 -0 -0 1 2 2 3 4 4 3 1 0 0 -0 -2 -4 -2 0 2 1 1 1 1 1 1 1 2 1 1 1 1 1 1 1 0 -0 0 0
-2 -2 -2 -2 -3 -3 -3 -1 0 2 3 0 -1 -2 -1 1 4 6 6 4 2 2 3 9 13 14 8 3 -0 -1 -1 0 -0 -1 -2 0 1 2 1 -0 -1 -1 -1 -1 -0 1 0 -0 -0 -0 1 1 2 2 3 3 3 3 2 1 -1 -2 -4 -2 1 3 4 3 2 2 2 2 1 1 1 1 0 0 0 1 1 1 0 0 0 1
-1 -1 -1 -1 -2 -2 -1 0 1 2 2 1 -0 -1 -2 -1 2 5 6 4 2 2 2 9 14 16 11 5 -0 -2 -2 0 0 -0 -0 1 3 5 5 2 -0 -1 -1 -1 -1 -0 1 1 0 0 1 1 2 2 2 2 3 3 2 1 0 -0 0 3 4 5 4 3 3 3 3 2 2 1 0 -0 -0 -0 0 1 2 2 1 1 1 1
-1 -2 -2 -1 -1 -1 -1 -0 1 1 1 1 -0 -1 -3 -2 1 4 6 5 2 1 1 6 11 13 12 8 2 -1 -1 0 0 0 1 4 7 8 8 3 0 -1 -1 -1 -1 -1 -0 1 2 2 1 1 1 1 1 2 3 3 2 1 1 1 2 2 2 2 2 2 3 3 3 2 1 0 -1 -0 -0 0 0 2 2 2 1 1 1 1
-1 -3 -3 -2 -2 -1 -1 -1 -0 0 1 -0 -1 -3 -4 -1 3 7 10 8 6 4 2 4 5 8 10 8 5 2 2 2 1 1 3 7 10 11 8 4 1 -0 0 0 0 -0 -0 0 1 1 -0 -0 -0 -0 1 2 3 3 1 0 1 1 2 2 1 2 2 3 3 3 3 2 1 -0 -1 -0 0 0 1 2 2 1 0 0 1 1
-4 -4 -4 -3 -2 -2 -2 -1 -0 0 1 -1 -2 -3 -4 -0 5 10 11 10 10 10 10 8 5 4 5 5 4 4 4 3 3 4 6 8 10 10 7 3 1 0 1 0 0 -0 -0 -0 -0 -1 -1 -1 -1 -0 1 3 4 3 1 0 0 1 2 2 2 3 4 3 3 2 2 1 0 -1 -0 1 1 0 1 2 2 1 1 0 0 0
-2 -2 -2 -2 -2 -2 -3 -2 -1 0 1 -0 -2 -3 -3 1 7 10 7 7 9 14 19 17 12 6 2 1 2 3 5 4 4 4 6 7 8 7 5 2 1 1 1 1 1 0 -0 -1 -1 -2 -1 -1 -0 0 2 3 4 3 1 -0 -0 1 2 2 3 3 3 3 2 2 2 1 0 0 1 1 0 -0 1 2 1 1 1 1 1 0
-0 -0 -0 -0 -1 -2 -3 -3 -1 -0 1 -0 -1 -2 -2 3 7 8 5 3 5 11 20 25 22 14 5 1 -0 1 3 4 5 4 5 5 5 5 3 1 1 1 2 2 1 0 -0 -1 -2 -3 -2 -0 0 1 1 3 3 3 1 -1 -1 -0 2 2 2 2 2 2 2 2 2 1 1 1 1 -0 -0 -0 1 1 1 0 1 1 1 1
0 1 1 1 -0 -1 -2 -2 -1 0 1 0 -1 -2 -2 2 6 7 5 2 3 9 18 28 29 23 13 5 1 -1 1 3 4 4 3 3 4 4 2 1 1 2 3 3 1 0 -0 -1 -2 -3 -4 -2 -0 1 1 2 2 2 1 -1 -1 0 2 2 2 2 2 2 2 2 2 1 1 0 -0 -1 -0 0 1 0 -0 -0 1 1 1 1
Height
3038 3039 3040 3040 3040 3040 3040 3040 3040 3040 3039 3040 3040 3040 3040 3040 3040 3041 3041 3041 3041 3042 3042 3042 3042 3043 3043 3043 3043 3043 3044 3044 3044 3044 3045 3045 3045 3045 3045 3046 3046 3046 3046 3047 3047 3047 3047 3047 3047 3048 3048 3048 3049 3049 3049 3050 3050 3050 3051 3051 3051 3052 3052 3053 3054 3054 3055 3055 3056 3057 3057 3057 3057 3057 3057 3058 3058 3059 3059 3059 3059 3060 3060 3060 3061 3061
3034 3035 3036 3036 3036 3036 3036 3037 3037 3037 3036 3037 3037 3037 3037 3038 3038 3038 3039 3039 3039 3039 3039 3040 3040 3040 3040 3040 3041 3041 3041 3041 3041 3041 3042 3042 3042 3043 3043 3043 3043 3044 3044 3044 3044 3045 3045 3045 3045 3045 3045 3045 3046 3046 3046 3047 3047 3048 3048 3049 3049 3049 3050 3050 3050 3051 3052 3052 3053 3054 3055 3055 3055 3055 3055 3055 3056 3056 3056 3056 3057 3057 3058 3058 3059 3059
3031 3031 3032 3033 3033 3033 3033 3033 3034 3034 3034 3034 3034 3035 3035 3035 3035 3036 3036 3036 3036 3036 3037 3037 3037 3037 3038 3038 3038 3038 3038 3038 3039 3039 3039 3039 3040 3040 3040 3040 3041 3041 3041 3041 3042 3042 3042 3042 3042 3043 3043 3043 3043 3044 3044 3044 3045 3045 3045 3046 3046 3046 3047 3047 3048 3048 3049 3049 3050 3051 3052 3052 3053 3053 3053 3053 3054 3054 3055 3055 3055 3055 3056 3056 3057 3057
3027 3028 3029 3030 3030 3030 3030 3030 3030 3030 3030 3030 3030 3031 3032 3032 3032 3033 3033 3033 3033 3034 3034 3034 3034 3035 3035 3035 3035 3035 3035 3035 3036 3036 3036 3037 3037 3037 3038 3038 3038 3039 3039 3039 3039 3039 3040 3040 3040 3040 3040 3041 3041 3041 3041 3042 3042 3042 3043 3043 3044 3044 3044 3045 3045 3045 3046 3047 3048 3048 3049 3050 3050 3050 3051 3051 3051 3052 3053 3053 3053 3054 3054 3054 3055 3055
3024 3025 3025 3026 3027 3027 3027 3027 3026 3026 3026 3027 3027 3028 3028 3029 3029 3030 3030 3030 3030 3030 3031 3031 3031 3032 3032 3032 3032 3032 3032 3032 3033 3033 3034 3034 3034 3035 3035 3035 3036 3036 3036 3036 3037 3037 3037 3037 3038 3038 3038 3038 3039 3039 3039 3040 3040 3040 3040 3041 3041 3041 3042 3042 3043 3043 3044 3045 3045 3046 3047 3047 3047 3048 3049 3049 3050 3050 3051 3051 3052 3052 3052 3052 3052 3053
3020 3021 3021 3022 3023 3023 3024 3023 3023 3023 3023 3023 3024 3024 3025 3025 3026 3026 3027 3027 3027 3028 3028 3028 3028 3029 3029 3029 3029 3029 3029 3030 3030 3030 3031 3031 3032 3032 3033 3033 3033 3034 3034 3034 3034 3035 3035 3035 3035 3035 3036 3036 3036 3037 3037 3037 3037 3038 3038 3039 3039 3039 3040 3040 3040 3041 3042 3042 3043 3044 3045 3045 3045 3046 3047 3047 3048 3048 3048 3049 3050 3050 3050 3050 3050 3051
3016 3017 3018 3019 3020 3020 3020 3020 3020 3020 3020 3020 3020 3021 3021 3022 3022 3023 3023 3024 3024 3025 3025 3025 3025 3025 3026 3026 3026 3026 3026 3026 3027 3027 3028 3029 3029 3030 3030 3030 3031 3031 3031 3032 3032 3032 3033 3033 3033 3033 3034 3034 3034 3035 3035 3035 3035 3035 3036 3036 3036 3037 3037 3038 3038 3039 3040 3040 3041 3042 3042 3043 3044 3044 3045 3045 3045 3045 3046 3046 3047 3048 3048 3048 3049 3049
3013 3013 3014 3015 3016 3016 3017 3017 3017 3017 3017 3017 3017 3017 3017 3018 3019 3020 3020 3020 3021 3021 3022 3022 3022 3022 3022 3022 3022 3023 3023 3023 3024 3025 3025 3026 3026 3027 3028 3028 3028 3029 3029 3030 3030 3030 3030 3030 3031 3031 3031 3032 3032 3032 3032 3033 3033 3033 3034 3034 3034 3035 3035 3035 3036 3037 3037 3038 3039 3040 3040 3041 3042 3042 3043 3043 3044 3044 3044 3044 3045 3045 3046 3046 3046 3047
3009 3009 3010 3011 3012 3013 3013 3013 3013 3014 3014 3014 3014 3014 3014 3015 3015 3016 3017 3017 3018 3018 3018 3019 3019 3019 3019 3019 3019 3019 3019 3020 3020 3021 3022 3023 3024 3024 3025 3025 3026 3026 3027 3027 3027 3028 3028 3028 3029 3029 3029 3030 3030 3030 3030 3030 3031 3031 3031 3032 3032 3033 3033 3034 3034 3035 3035 3036 3037 3037 3038 3039 3040 3040 3041 3041 3041 3042 3042 3042 3042 3043 3043 3044 3045 3045
3006 3006 3006 3007 3008 3009 3009 3009 3010 3010 3010 3010 3010 3010 3011 3011 3012 3013 3013 3014 3014 3015 3015 3015 3015 3015 3016 3016 3016 3016 3016 3017 3017 3018 3019 3020 3021 3021 3022 3023 3023 3024 3024 3025 3025 3025 3026 3026 3026 3026 3027 3027 3027 3028 3028 3028 3029 3029 3029 3030 3030 3030 3031 3031 3032 3032 3033 3034 3034 3035 3035 3036 3037 3038 3039 3039 3039 3040 3040 3040 3040 3041 3041 3042 3042 3043
3002 3002 3003 3003 3003 3004 3005 3005 3005 3006 3007 3007 3007 3007 3008 3008 3009 3009 3010 3010 3011 3011 3011 3011 3011 3012 3012 3012 3012 3012 3013 3013 3014 3015 3016 3017 3018 3019 3019 3020 3020 3021 3021 3022 3022 3023 3023 3024 3024 3024 3025 3025 3025 3025 3026 3026 3026 3026 3027 3027 3028 3028 3029 3029 3030 3030 3031 3031 3032 3032 3033 3034 3035 3036 3036 3037 3037 3037 3038 3038 3039 3039 3040 3040 3040 3041
2998 2998 2999 2999 2999 2999 3000 3000 3001 3002 3003 3003 3003 3004 3004 3005 3005 3006 3006 3006 3007 3008 3008 3008 3008 3009 3009 3009 3009 3009 3010 3010 3011 3012 3013 3014 3015 3015 3016 3017 3018 3018 3019 3019 3020 3020 3021 3021 3021 3022 3022 3023 3023 3023 3023 3024 3024 3024 3025 3025 3025 3026 3026 3027 3027 3028 3028 3029 3030 3030 3031 3031 3032 3033 3034 3035 3035 3035 3035 3036 3036 3037 3038 3038 3039 3039
2994 2994 2994 2994 2995 2995 2995 2996 2997 2998 2998 2999 3000 3000 3001 3001 3002 3002 3002 3002 3003 3004 3004 3004 3004 3005 3005 3006 3006 3006 3006 3007 3008 3009 3010 3011 3011 3012 3013 3014 3015 3015 3016 3016 3017 3018 3018 3019 3019 3020 3020 3020 3020 3021 3021 3021 3021 3022 3022 3023 3023 3024 3024 3025 3025 3025 3026 3026 3027 3028 3028 3029 3030 3031 3031 3032 3033 3033 3033 3034 3034 3035 3035 3036 3037 3037
2990 2990 2990 2990 2990 2990 2991 2992 2992 2993 2994 2995 2996 2997 2997 2997 2998 2998 2998 2999 2999 3000 3000 3000 3000 3001 3002 3003 3003 3003 3003 3004 3004 3005 3006 3008 3009 3009 3010 3010 3011 3012 3013 3014 3014 3015 3015 3016 3016 3017 3017 3018 3018 3018 3019 3019 3019 3020 3020 3020 3021 3021 3022 3022 3023 3023 3024 3024 3025 3025 3026 3027 3028 3029 3029 3030 3030 3031 3031 3032 3032 3033 3034 3034 3035 3035
2985 2985 2985 2985 2985 2986 2987 2988 2988 2989 2990 2991 2992 2993 2993 2993 2993 2994 2995 2995 2995 2996 2996 2996 2996 2997 2999 3000 3000 3000 3000 3000 3001 3002 3003 3004 3005 3006 3006 3007 3008 3009 3010 3011 3011 3012 3013 3013 3014 3014 3015 3015 3015 3016 3016 3016 3016 3017 3017 3018 3018 3019 3020 3020 3020 3020 3021 3022 3022 3023 3024 3025 3025 3026 3027 3027 3028 3029 3029 3030 3030 3031 3031 3032 3032 3033
2981 2981 2980 2980 2981 2981 2982 2983 2984 2985 2985 2987 2988 2988 2989 2989 2989 2990 2991 2991 2991 2992 2992 2992 2992 2993 2995 2996 2996 2997 2997 2996 2997 2998 3000 3001 3002 3002 3003 3004 3005 3006 3007 3008 3009 3009 3010 3010 3011 3011 3012 3012 3013 3013 3013 3013 3014 3014 3015 3015 3016 3016 3017 3017 3018 3018 3019 3019 3020 3021 3021 3022 3023 3024 3025 3025 3026 3027 3027 3028 3028 3029 3029 3030 3030 3030
2976 2976 2976 2976 2976 2977 2978 2979 2980 2980 2981 2982 2983 2983 2984 2985 2985 2986 2986 2987 2987 2987 2988 2988 2989 2989 2991 2992 2993 2993 2993 2993 2993 2994 2996 2997 2998 2999 3000 3000 3001 3003 3004 3005 3005 3006 3007 3008 3008 3009 3009 3010 3010 3010 3010 3010 3011 3012 3012 3013 3014 3014 3015 3015 3015 3016 3016 3017 3018 3018 3019 3020 3020 3021 3022 3023 3024 3024 3025 3025 3026 3027 3027 3027 3027 3028
2971 2971 2972 2972 2972 2973 2974 2974 2975 2976 2977 2978 2978 2979 2979 2980 2980 2981 2982 2982 2983 2983 2983 2984 2985 2985 2987 2989 2989 2990 2990 2990 2990 2990 2992 2993 2995 2995 2996 2997 2998 2999 3001 3002 3003 3003 3004 3005 3005 3006 3006 3007 3007 3007 3008 3008 3008 3009 3010 3010 3011 3012 3012 3013 3013 3014 3014 3015 3015 3016 3017 3017 3018 3019 3020 3020 3021 3022 3022 3023 3024 3024 3025 3025 3025 3025
2966 2967 2967 2968 2968 2968 2969 2969 2970 2971 2972 2973 2974 2974 2974 2975 2975 2976 2977 2978 2978 2979 2979 2980 2980 2982 2983 2985 2985 2985 2986 2986 2986 2986 2988 2990 2991 2992 2993 2993 2995 2996 2997 2999 2999 3000 3001 3001 3002 3003 3003 3004 3004 3005 3005 3005 3006 3006 3007 3008 3009 3010 3010 3010 3011 3011 3012 3012 3013 3014 3014 3015 3016 3016 3017 3018 3019 3019 3020 3020 3021 3022 3022 3022 3023 3023
2961 2962 2963 2963 2964 2964 2964 2964 2965 2966 2967 2968 2969 2969 2969 2970 2970 2971 2972 2973 2974 2975 2975 2975 2976 2978 2979 2980 2980 2981 2982 2982 2983 2983 2984 2986 2987 2988 2989 2990 2991 2992 2994 2995 2996 2997 2997 2998 2999 3000 3000 3001 3001 3002 3002 3003 3003 3004 3005 3005 3006 3007 3007 3008 3008 3009 3010 3010 3011 3011 3012 3013 3013 3014 3015 3015 3016 3017 3018 3018 3019 3020 3020 3020 3020 3021
2956 2956 2957 2959 2960 2959 2959 2959 2961 2962 2963 2963 2964 2964 2964 2965 2965 2966 2967 2969 2969 2970 2970 2971 2972 2973 2975 2975 2976 2977 2978 2979 2980 2980 2981 2982 2983 2984 2985 2987 2987 2989 2990 2992 2993 2994 2994 2995 2996 2996 2997 2998 2998 2999 3000 3000 3000 3001 3002 3003 3004 3004 3005 3005 3006 3006 3007 3008 3008 3009 3010 3010 3011 3012 3013 3013 3014 3015 3015 3016 3017 3017 3018 3018 3018 3019
2951 2952 2953 2954 2955 2954 2954 2955 2956 2958 2958 2959 2959 2959 2959 2960 2960 2961 2963 2964 2965 2965 2966 2967 2968 2968 2970 2970 2971 2973 2975 2976 2976 2976 2977 2978 2980 2981 2982 2983 2984 2985 2986 2988 2990 2990 2991 2991 2992 2993 2994 2995 2995 2996 2996 2997 2998 2999 2999 3000 3001 3001 3002 3003 3003 3004 3005 3005 3006 3007 3007 3008 3009 3010 3010 3011 3012 3012 3013 3014 3015 3015 3015 3016 3016 3017
2947 2947 2948 2949 2950 2950 2950 2951 2952 2953 2953 2954 2954 2954 2954 2955 2956 2957 2958 2959 2960 2960 2961 2962 2963 2964 2965 2966 2967 2969 2971 2972 2972 2972 2973 2974 2975 2977 2979 2980 2980 2981 2983 2985 2986 2987 2987 2988 2989 2990 2991 2991 2992 2993 2994 2994 2995 2996 2997 2997 2998 2999 3000 3000 3001 3001 3002 3003 3004 3004 3005 3006 3006 3007 3008 3009 3010 3010 3011 3012 3012 3013 3013 3014 3014 3015
2942 2943 2943 2944 2945 2945 2946 2947 2948 2948 2949 2949 2949 2949 2950 2951 2952 2952 2953 2954 2955 2956 2956 2957 2958 2959 2960 2962 2963 2965 2967 2968 2968 2969 2970 2970 2972 2973 2975 2976 2976 2978 2979 2981 2982 2983 2984 2985 2985 2986 2987 2988 2989 2990 2990 2991 2992 2993 2994 2995 2995 2996 2997 2997 2998 2999 3000 3000 3001 3002 3002 3003 3004 3005 3006 3007 3007 3008 3009 3009 3010 3010 3011 3012 3012 3013
2938 2938 2939 2940 2940 2941 2942 2942 2943 2944 2944 2944 2944 2945 2946 2947 2948 2948 2949 2950 2950 2951 2952 2953 2954 2954 2955 2957 2959 2960 2962 2964 2965 2965 2966 2967 2968 2970 2971 2972 2973 2974 2975 2977 2978 2980 2980 2981 2982 2983 2984 2985 2986 2987 2987 2988 2989 2990 2991 2992 2992 2993 2994 2995 2995 2996 2997 2998 2998 2999 3000 3001 3002 3003 3004 3004 3005 3005 3006 3007 3008 3008 3009 3010 3010 3011
2933 2933 2934 2935 2935 2936 2936 2937 2937 2938 2939 2940 2940 2941 2942 2943 2944 2945 2945 2945 2946 2947 2948 2949 2949 2950 2951 2953 2955 2956 2958 2960 2961 2961 2962 2963 2964 2965 2967 2968 2970 2970 2971 2973 2975 2975 2976 2977 2978 2980 2980 2981 2982 2983 2984 2985 2986 2987 2988 2989 2990 2990 2991 2992 2993 2993 2994 2995 2996 2997 2997 2998 2999 3000 3001 3002 3002 3003 3004 3005 3005 3006 3007 3008 3008 3009
2928 2929 2929 2930 2930 2931 2931 2932 2932 2933 2934 2935 2936 2938 2939 2940 2940 2940 2940 2940 2942 2943 2944 2944 2945 2945 2947 2949 2950 2952 2954 2956 2957 2958 2959 2960 2960 2961 2963 2965 2966 2966 2967 2969 2970 2972 2972 2973 2975 2976 2977 2978 2979 2980 2981 2982 2983 2984 2985 2986 2986 2987 2988 2989 2990 2991 2991 2992 2993 2994 2995 2996 2997 2998 2999 2999 3000 3001 3001 3002 3003 3004 3005 3005 3006 3007
2923 2924 2924 2925 2925 2926 2926 2927 2927 2928 2930 2931 2932 2933 2935 2935 2936 2935 2935 2936 2938 2940 2939 2940 2940 2942 2943 2944 2946 2948 2950 2952 2953 2954 2955 2956 2956 2957 2959 2961 2962 2963 2964 2965 2966 2968 2969 2970 2971 2972 2973 2975 2975 2976 2977 2979 2980 2981 2982 2983 2983 2984 2985 2986 2987 2988 2989 2990 2990 2991 2992 2993 2994 2995 2996 2997 2997 2998 2999 3000 3001 3002 3003 3004 3004 3005
2918 2919 2919 2920 2920 2920 2921 2922 2922 2923 2925 2926 2927 2929 2930 2931 2931 2930 2930 2932 2935 2935 2935 2935 2937 2938 2939 2940 2941 2944 2945 2947 2949 2951 2952 2952 2952 2953 2955 2958 2959 2959 2960 2961 2963 2964 2965 2966 2967 2969 2970 2971 2972 2973 2974 2975 2976 2978 2979 2980 2980 2981 2982 2983 2984 2985 2986 2987 2988 2989 2990 2991 2992 2993 2993 2994 2995 2996 2996 2997 2998 3000 3000 3001 3002 3002
2912 2913 2914 2915 2915 2915 2916 2917 2918 2919 2920 2920 2922 2924 2925 2925 2926 2925 2926 2928 2929 2930 2930 2931 2933 2935 2935 2936 2937 2939 2940 2943 2946 2948 2949 2949 2949 2950 2952 2954 2955 2955 2957 2958 2959 2960 2961 2962 2964 2965 2967 2968 2969 2970 2970 2972 2973 2974 2975 2976 2977 2978 2979 2980 2981 2982 2983 2984 2985 2986 2987 2988 2989 2990 2991 2992 2992 2993 2994 2995 2996 2997 2998 2999 3000 3000
2907 2908 2909 2910 2910 2911 2912 2912 2913 2914 2915 2916 2917 2918 2919 2920 2920 2921 2922 2923 2924 2925 2926 2928 2929 2930 2931 2933 2933 2934 2934 2939 2943 2945 2945 2945 2945 2946 2949 2950 2951 2952 2953 2955 2955 2956 2957 2959 2960 2962 2963 2964 2965 2966 2967 2969 2970 2971 2972 2973 2975 2975 2976 2978 2979 2980 2980 2981 2983 2984 2985 2985 2986 2987 2988 2989 2990 2991 2992 2993 2994 2995 2996 2996 2997 2998
2901 2903 2904 2904 2905 2906 2907 2908 2908 2909 2910 2910 2911 2912 2913 2914 2915 2916 2917 2918 2919 2920 2922 2924 2925 2926 2927 2928 2929 2930 2931 2935 2939 2941 2942 2942 2942 2943 2945 2946 2947 2948 2950 2951 2952 2952 2954 2955 2957 2959 2960 2961 2962 2963 2964 2965 2966 2968 2969 2970 2971 2972 2974 2975 2976 2977 2978 2979 2980 2981 2982 2983 2984 2985 2985 2986 2988 2989 2990 2990 2991 2993 2993 2994 2995 2995
2896 2897 2898 2899 2900 2901 2902 2903 2903 2904 2905 2905 2906 2907 2908 2909 2910 2911 2913 2914 2915 2917 2918 2920 2921 2922 2923 2924 2925 2926 2929 2931 2935 2937 2939 2939 2939 2940 2941 2943 2944 2945 2946 2947 2948 2949 2950 2952 2954 2955 2957 2958 2959 2960 2961 2962 2963 2965 2966 2967 2968 2970 2971 2972 2973 2974 2975 2976 2977 2978 2979 2980 2981 2982 2983 2984 2985 2986 2987 2988 2989 2990 2991 2992 2993 2993
2891 2891 2892 2893 2894 2895 2897 2898 2899 2899 2900 2900 2901 2903 2904 2905 2906 2907 2908 2910 2911 2912 2914 2915 2916 2918 2919 2920 2922 2923 2925 2928 2930 2933 2935 2935 2935 2936 2938 2940 2940 2941 2943 2944 2945 2946 2947 2949 2950 2952 2954 2955 2956 2957 2958 2959 2960 2961 2962 2964 2965 2966 2968 2969 2970 2971 2972 2973 2974 2975 2976 2977 2978 2979 2980 2982 2983 2984 2985 2985 2987 2988 2989 2990 2990 2991
2885 2886 2887 2888 2889 2890 2891 2892 2893 2894 2895 2896 2897 2898 2899 2900 2901 2903 2904 2905 2906 2908 2909 2911 2912 2913 2915 2916 2918 2920 2921 2924 2926 2929 2930 2931 2932 2933 2935 2936 2937 2938 2940 2940 2942 2943 2944 2945 2947 2949 2950 2951 2952 2954 2955 2955 2957 2958 2959 2961 2962 2963 2965 2966 2967 2969 2970 2971 2972 2973 2974 2975 2975 2977 2978 2979 2980 2981 2982 2983 2984 2985 2986 2987 2988 2989
2880 2881 2882 2883 2884 2885 2886 2887 2888 2889 2890 2891 2892 2893 2895 2896 2897 2898 2899 2900 2902 2904 2905 2906 2908 2909 2911 2912 2914 2915 2918 2920 2922 2924 2926 2927 2928 2930 2931 2932 2933 2935 2936 2937 2938 2940 2941 2942 2944 2945 2947 2948 2949 2950 2951 2952 2954 2955 2956 2957 2959 2960 2962 2963 2964 2966 2967 2968 2969 2970 2971 2972 2973 2974 2975 2976 2978 2979 2980 2980 2982 2983 2984 2985 2986 2987
2876 2877 2878 2879 2880 2880 2881 2882 2883 2884 2885 2886 2888 2889 2890 2891 2892 2893 2895 2896 2897 2899 2900 2902 2904 2905 2906 2908 2910 2912 2914 2916 2918 2920 2921 2923 2925 2926 2927 2928 2930 2931 2933 2934 2935 2936 2938 2939 2940 2942 2943 2944 2945 2946 2948 2950 2951 2952 2953 2955 2956 2957 2959 2960 2961 2963 2964 2965 2966 2967 2968 2969 2970 2971 2973 2974 2975 2976 2977 2978 2979 2980 2982 2983 2984 2985
2872 2873 2874 2875 2876 2876 2877 2878 2879 2880 2881 2882 2883 2884 2885 2886 2887 2889 2890 2891 2893 2895 2896 2898 2899 2901 2902 2904 2906 2908 2910 2912 2914 2916 2917 2919 2920 2922 2923 2925 2926 2928 2930 2930 2932 2933 2934 2935 2936 2938 2939 2941 2942 2944 2945 2946 2947 2949 2950 2951 2953 2954 2956 2957 2959 2960 2961 2963 2964 2965 2965 2966 2968 2969 2970 2971 2972 2973 2974 2975 2977 2978 2979 2980 2981 2982
2868 2869 2870 2871 2872 2872 2873 2874 2875 2876 2877 2878 2879 2880 2881 2882 2883 2884 2885 2887 2888 2890 2892 2893 2895 2897 2899 2901 2903 2905 2907 2909 2910 2912 2913 2915 2917 2918 2920 2921 2923 2925 2926 2928 2929 2930 2930 2931 2933 2934 2936 2938 2939 2941 2942 2944 2945 2946 2947 2949 2950 2951 2953 2955 2956 2957 2959 2960 2961 2962 2963 2964 2965 2966 2967 2969 2970 2971 2972 2973 2975 2976 2977 2978 2979 2980
2864 2865 2866 2867 2868 2869 2869 2870 2871 2872 2873 2874 2875 2875 2876 2877 2879 2880 2881 2882 2884 2886 2887 2890 2892 2894 2895 2897 2899 2901 2903 2905 2907 2909 2910 2911 2913 2915 2916 2918 2920 2921 2923 2925 2925 2926 2927 2928 2930 2931 2933 2935 2936 2938 2939 2940 2942 2943 2944 2945 2947 2948 2950 2952 2953 2955 2956 2957 2958 2959 2960 2961 2962 2964 2965 2966 2967 2969 2970 2971 2972 2973 2975 2976 2977 2978
2861 2861 2862 2863 2864 2865 2865 2866 2867 2868 2869 2870 2870 2871 2872 2873 2875 2876 2877 2879 2880 2882 2884 2886 2888 2890 2892 2893 2895 2897 2899 2901 2903 2905 2906 2908 2909 2911 2913 2915 2916 2918 2920 2921 2922 2923 2924 2925 2926 2928 2930 2931 2933 2935 2936 2938 2939 2940 2941 2942 2944 2945 2948 2949 2950 2952 2953 2955 2955 2956 2958 2959 2960 2961 2963 2964 2965 2966 2967 2969 2970 2971 2972 2974 2975 2976
2857 2857 2858 2859 2860 2861 2862 2863 2863 2864 2865 2865 2866 2866 2868 2869 2871 2872 2873 2875 2876 2878 2880 2882 2885 2886 2888 2889 2890 2892 2895 2897 2899 2901 2902 2904 2906 2908 2909 2911 2913 2914 2916 2918 2919 2920 2921 2922 2924 2925 2926 2928 2930 2931 2933 2935 2936 2938 2939 2940 2941 2943 2945 2946 2948 2949 2950 2952 2953 2954 2955 2956 2958 2959 2960 2961 2963 2964 2965 2966 2967 2969 2970 2972 2973 2974
2853 2854 2855 2856 2857 2857 2858 2859 2860 2860 2860 2861 2862 2863 2864 2865 2867 2869 2870 2871 2872 2874 2876 2879 2880 2882 2884 2885 2886 2888 2890 2893 2895 2897 2899 2900 2902 2904 2906 2908 2909 2911 2913 2914 2915 2916 2918 2919 2920 2922 2923 2925 2927 2928 2930 2932 2934 2935 2936 2937 2939 2940 2942 2943 2945 2946 2948 2949 2950 2951 2953 2954 2955 2956 2958 2959 2960 2961 2963 2964 2965 2966 2968 2969 2971 2972
2850 2850 2851 2852 2853 2854 2855 2855 2856 2856 2857 2858 2859 2860 2861 2862 2864 2865 2867 2868 2869 2870 2873 2875 2877 2879 2880 2881 2883 2884 2886 2889 2891 2893 2895 2897 2899 2901 2903 2904 2906 2908 2910 2911 2912 2913 2915 2916 2918 2919 2920 2922 2924 2925 2927 2929 2930 2932 2933 2935 2936 2937 2938 2940 2942 2944 2945 2947 2948 2949 2950 2951 2953 2954 2955 2957 2958 2959 2960 2961 2963 2964 2966 2967 2969 2970
2846 2847 2848 2849 2850 2850 2851 2852 2852 2853 2854 2855 2855 2857 2858 2860 2861 2862 2864 2865 2865 2867 2869 2871 2874 2875 2877 2878 2879 2881 2883 2885 2887 2889 2891 2893 2896 2898 2900 2901 2903 2904 2906 2908 2909 2910 2912 2913 2915 2916 2918 2919 2921 2922 2924 2926 2928 2929 2930 2932 2933 2935 2936 2939 2940 2941 2942 2944 2945 2947 2948 2949 2950 2951 2953 2954 2956 2957 2958 2960 2961 2962 2964 2965 2967 2968
2842 2843 2845 2845 2846 2847 2847 2848 2849 2850 2851 2851 2852 2854 2855 2857 2858 2860 2860 2862 2863 2864 2865 2868 2870 2872 2873 2874 2876 2878 2880 2881 2883 2885 2887 2890 2893 2895 2896 2898 2899 2901 2903 2905 2906 2908 2909 2910 2912 2913 2915 2916 2918 2919 2921 2923 2925 2926 2928 2929 2930 2932 2934 2936 2937 2938 2940 2941 2943 2944 2945 2947 2948 2949 2950 2952 2953 2955 2956 2957 2959 2960 2961 2963 2965 2966
2840 2840 2841 2842 2843 2843 2844 2845 2846 2847 2848 2848 2850 2851 2852 2854 2855 2856 2857 2859 2860 2862 2863 2865 2866 2868 2869 2870 2873 2875 2876 2878 2880 2882 2884 2887 2889 2891 2893 2894 2896 2898 2900 2901 2903 2905 2906 2907 2909 2910 2912 2913 2915 2916 2918 2920 2922 2924 2925 2926 2928 2930 2931 2933 2934 2935 2937 2938 2940 2941 2943 2944 2945 2946 2948 2949 2951 2952 2954 2955 2956 2958 2959 2960 2962 2964
2836 2837 2838 2839 2840 2840 2841 2842 2843 2844 2845 2846 2847 2848 2850 2850 2851 2852 2853 2855 2857 2859 2861 2862 2863 2864 2865 2867 2870 2871 2873 2875 2877 2879 2881 2883 2885 2887 2889 2891 2893 2895 2896 2898 2900 2901 2903 2905 2906 2907 2909 2910 2912 2914 2916 2918 2919 2921 2922 2924 2925 2927 2928 2930 2932 2933 2935 2936 2937 2939 2940 2941 2942 2944 2945 2947 2949 2950 2952 2953 2954 2955 2957 2958 2960 2962
2833 2834 2835 2835 2836 2837 2839 2840 2840 2841 2842 2843 2845 2845 2846 2847 2847 2848 2849 2851 2853 2855 2857 2859 2860 2861 2863 2864 2866 2868 2870 2872 2874 2875 2878 2880 2881 2884 2885 2887 2889 2891 2893 2895 2896 2898 2900 2901 2903 2905 2906 2908 2910 2911 2913 2915 2916 2918 2920 2921 2922 2924 2926 2927 2929 2930 2932 2933 2934 2936 2937 2938 2940 2941 2943 2945 2946 2948 2949 2950 2952 2953 2955 2956 2958 2960
2830 2831 2832 2833 2834 2835 2836 2837 2838 2839 2840 2840 2842 2843 2844 2844 2844 2845 2845 2847 2849 2851 2853 2855 2857 2859 2860 2861 2863 2864 2866 2868 2870 2872 2874 2876 2878 2880 2882 2884 2885 2888 2890 2891 2893 2895 2896 2898 2900 2901 2903 2905 2907 2909 2910 2912 2914 2915 2917 2918 2920 2921 2923 2925 2926 2927 2929 2930 2932 2933 2935 2936 2937 2939 2940 2942 2944 2945 2947 2948 2950 2951 2953 2954 2956 2958
2828 2829 2829 2830 2831 2832 2833 2834 2835 2836 2837 2838 2839 2840 2841 2841 2841 2842 2843 2845 2846 2848 2850 2852 2855 2856 2857 2859 2860 2861 2863 2865 2867 2869 2870 2872 2874 2876 2878 2880 2882 2885 2887 2888 2890 2891 2893 2895 2897 2899 2901 2903 2904 2906 2908 2909 2911 2912 2914 2915 2917 2919 2920 2922 2923 2925 2926 2928 2929 2930 2932 2933 2934 2936 2938 2939 2941 2943 2944 2946 2947 2949 2951 2952 2954 2956